Date String (YYYY-MM-DD hh:mm:ss) UTC,Instrument flags,Ambient pressure (hPa),Sample flow (lpm),Bypass flow (lpm),Sample temperature (°C),Ambient temperature (°C),ASC tube jacket temperature (°C),LED temperature (°C),Box temperature (°C),Sample RH (%),Span deviation,Mass concentration (μg/m³),Mass concentration (μg/m³),Mass concentration (μg/m³)
DateTimeUTC,F1_M11,P_M11,Q1_M11,Q2_M11,T1_M11,T2_M11,T3_M11,T4_M11,T5_M11,U1_M11,ZSPAN_M11,X0_M11,X2_M11,X1_M11
2022-05-29 17:00:00,,0811.1,5.01,0.00,29.4,28.5,00.0,38.3,31.2,17.1,0000.0,0018.12,0004.59,0002.78
2022-05-29 17:01:00,,0811.1,4.99,0.00,29.4,28.5,00.0,38.3,31.2,17.0,0000.0,0018.36,0004.52,0002.77
2022-05-29 17:02:00,,0811.1,5.00,0.00,29.4,28.5,00.0,38.3,31.2,16.9,0000.0,0018.23,0004.52,0002.76
2022-05-29 17:03:00,,0811.1,5.00,0.00,29.4,28.5,00.0,38.3,31.2,17.4,0000.0,0017.50,0004.55,0002.74
2022-05-29 17:04:00,,0811.1,4.98,0.00,29.4,28.4,00.0,38.3,31.2,17.0,0000.0,0017.78,0004.56,0002.72
2022-05-29 17:05:00,,0811.1,5.01,0.00,29.4,28.4,00.0,38.3,31.2,17.2,0000.0,0019.44,0004.61,0002.69
2022-05-29 17:06:00,,0811.0,5.00,0.00,29.4,28.5,00.0,38.3,31.2,17.4,0000.0,0019.15,0004.64,0002.70
2022-05-29 17:07:00,,0810.9,5.01,0.00,29.4,28.4,00.0,38.3,31.2,17.3,0000.0,0018.66,0004.64,0002.70
2022-05-29 17:08:00,,0811.0,5.00,0.00,29.4,28.4,00.0,38.3,31.2,17.0,0000.0,0017.43,0004.61,0002.70
2022-05-29 17:09:00,,0811.0,5.00,0.00,29.4,28.4,00.0,38.3,31.2,16.9,0000.0,0016.01,0004.56,0002.71
2022-05-29 17:10:00,,0811.0,5.01,0.00,29.4,28.4,00.0,38.3,31.2,17.0,0000.0,0015.23,0004.54,0002.70
2022-05-29 17:11:00,,0811.0,4.99,0.00,29.4,28.4,00.0,38.3,31.2,17.5,0000.0,0014.81,0004.49,0002.70
2022-05-29 17:12:00,,0810.9,5.00,0.00,29.4,28.4,00.0,38.3,31.2,17.5,0000.0,0014.16,0004.43,0002.66
2022-05-29 17:13:00,,0811.0,5.01,0.00,29.4,28.4,00.0,38.3,31.2,17.4,0000.0,0014.02,0004.40,0002.64
2022-05-29 17:14:00,,0811.0,4.99,0.00,29.4,28.4,00.0,38.3,31.2,17.4,0000.0,0013.99,0004.36,0002.62
2022-05-29 17:15:00,,0811.0,5.01,0.00,29.4,28.5,00.0,38.4,31.2,17.4,0000.0,0013.18,0004.33,0002.62
2022-05-29 17:16:00,,0811.0,5.00,0.00,29.4,28.5,00.0,38.4,31.2,17.5,0000.0,0011.64,0004.31,0002.63
2022-05-29 17:17:00,,0811.0,5.00,0.00,29.4,28.5,00.0,38.4,31.2,17.5,0000.0,0011.23,0004.26,0002.62
2022-05-29 17:18:00,,0810.9,5.00,0.00,29.4,28.5,00.0,38.4,31.2,17.8,0000.0,0011.26,0004.31,0002.63
2022-05-29 17:19:00,,0810.9,5.01,0.00,29.4,28.5,00.0,38.4,31.2,17.4,0000.0,0012.00,0004.34,0002.62
2022-05-29 17:20:00,,0810.9,5.01,0.00,29.4,28.5,00.0,38.4,31.2,17.4,0000.0,0012.08,0004.32,0002.60
2022-05-29 17:21:00,,0810.8,4.99,0.00,29.4,28.5,00.0,38.4,31.2,17.3,0000.0,0011.77,0004.30,0002.58
2022-05-29 17:22:00,,0810.9,5.00,0.00,29.4,28.5,00.0,38.4,31.2,17.0,0000.0,0011.16,0004.29,0002.57
2022-05-29 17:23:00,,0810.8,4.99,0.00,29.5,28.5,00.0,38.4,31.3,17.0,0000.0,0011.55,0004.36,0002.58
2022-05-29 17:24:00,,0810.9,5.00,0.00,29.5,28.5,00.0,38.4,31.3,17.7,0000.0,0011.87,0004.41,0002.58
2022-05-29 17:25:00,,0810.9,5.00,0.00,29.5,28.5,00.0,38.4,31.3,17.3,0000.0,0012.75,0004.47,0002.60
2022-05-29 17:26:00,,0810.9,4.99,0.00,29.5,28.5,00.0,38.4,31.3,17.5,0000.0,0013.22,0004.47,0002.60
2022-05-29 17:27:00,,0810.9,5.00,0.00,29.5,28.5,00.0,38.4,31.3,17.4,0000.0,0013.88,0004.45,0002.60
2022-05-29 17:28:00,,0810.9,5.00,0.00,29.5,28.5,00.0,38.4,31.3,18.1,0000.0,0016.10,0004.51,0002.60
2022-05-29 17:29:00,,0810.9,5.00,0.00,29.5,28.5,00.0,38.4,31.3,17.4,0000.0,0016.08,0004.51,0002.59
2022-05-29 17:30:00,,0810.9,5.00,0.00,29.5,28.6,00.0,38.4,31.3,17.4,0000.0,0015.71,0004.47,0002.58
2022-05-29 17:31:00,,0810.9,4.99,0.00,29.5,28.6,00.0,38.4,31.3,18.1,0000.0,0015.70,0004.48,0002.59
2022-05-29 17:32:00,,0810.9,5.00,0.00,29.5,28.6,00.0,38.4,31.3,17.8,0000.0,0016.21,0004.49,0002.59
2022-05-29 17:33:00,,0810.9,5.02,0.00,29.5,28.6,00.0,38.4,31.3,17.2,0000.0,0016.59,0004.59,0002.59
2022-05-29 17:34:00,,0810.8,5.00,0.00,29.5,28.6,00.0,38.4,31.3,17.4,0000.0,0017.63,0004.68,0002.62
2022-05-29 17:35:00,,0810.9,5.00,0.00,29.5,28.6,00.0,38.4,31.3,17.3,0000.0,0017.88,0004.68,0002.63
2022-05-29 17:36:00,,0810.9,5.00,0.00,29.5,28.6,00.0,38.4,31.3,17.3,0000.0,0017.45,0004.63,0002.64
2022-05-29 17:37:00,,0810.9,4.99,0.00,29.5,28.6,00.0,38.5,31.3,17.3,0000.0,0016.53,0004.64,0002.63
2022-05-29 17:38:00,,0810.8,5.01,0.00,29.5,28.6,00.0,38.5,31.3,18.0,0000.0,0016.37,0004.67,0002.63
2022-05-29 17:39:00,,0810.8,5.01,0.00,29.5,28.6,00.0,38.5,31.3,17.6,0000.0,0014.96,0004.69,0002.64
2022-05-29 17:40:00,,0810.8,4.99,0.00,29.6,28.7,00.0,38.5,31.4,17.6,0000.0,0015.45,0004.68,0002.65
2022-05-29 17:41:00,,0810.8,4.99,0.00,29.6,28.7,00.0,38.5,31.4,17.5,0000.0,0015.84,0004.73,0002.66
2022-05-29 17:42:00,,0810.7,5.01,0.00,29.6,28.7,00.0,38.5,31.4,17.3,0000.0,0015.39,0004.78,0002.69
2022-05-29 17:43:00,,0810.7,5.01,0.00,29.6,28.7,00.0,38.5,31.4,16.6,0000.0,0015.41,0004.82,0002.70
2022-05-29 17:44:00,,0810.6,5.00,0.00,29.6,28.7,00.0,38.5,31.4,16.8,0000.0,0015.50,0004.78,0002.72
2022-05-29 17:45:00,,0810.6,4.99,0.00,29.6,28.7,00.0,38.5,31.4,16.9,0000.0,0015.35,0004.70,0002.74
2022-05-29 17:46:00,,0810.6,4.99,0.00,29.6,28.7,00.0,38.5,31.4,17.0,0000.0,0014.63,0004.66,0002.74
2022-05-29 17:47:00,,0810.6,5.00,0.00,29.6,28.7,00.0,38.5,31.4,17.1,0000.0,0014.53,0004.66,0002.75
2022-05-29 17:48:00,,0810.6,5.00,0.00,29.6,28.7,00.0,38.5,31.5,16.7,0000.0,0014.35,0004.67,0002.75
2022-05-29 17:49:00,,0810.6,5.01,0.00,29.7,28.8,00.0,38.5,31.5,17.4,0000.0,0014.20,0004.63,0002.76
2022-05-29 17:50:00,,0810.6,5.00,0.00,29.7,28.8,00.0,38.6,31.5,16.6,0000.0,0012.95,0004.59,0002.76
2022-05-29 17:51:00,,0810.5,4.98,0.00,29.7,28.8,00.0,38.6,31.5,16.2,0000.0,0012.86,0004.59,0002.77
2022-05-29 17:52:00,,0810.5,5.00,0.00,29.7,28.8,00.0,38.6,31.5,16.4,0000.0,0013.10,0004.64,0002.77
2022-05-29 17:53:00,,0810.5,5.01,0.00,29.7,28.8,00.0,38.6,31.5,16.8,0000.0,0013.35,0004.65,0002.78
2022-05-29 17:54:00,,0810.4,5.00,0.00,29.7,28.8,00.0,38.6,31.5,16.6,0000.0,0013.30,0004.66,0002.79
2022-05-29 17:55:00,,0810.4,5.00,0.00,29.7,28.6,00.0,38.6,31.5,17.0,0000.0,0012.98,0004.63,0002.79
2022-05-29 17:56:00,,0810.4,5.00,0.00,29.7,27.8,00.0,38.5,31.3,16.6,0000.0,0012.19,0004.61,0002.77
2022-05-29 17:57:00,,0810.4,5.00,0.00,29.6,27.2,00.0,38.4,31.1,17.0,0000.0,0012.55,0004.64,0002.78
2022-05-29 17:58:00,,0810.4,4.98,0.00,29.5,27.1,00.0,38.4,31.1,17.3,0000.0,0012.78,0004.69,0002.79
2022-05-29 17:59:00,,0810.4,5.01,0.00,29.4,27.2,00.0,38.4,31.0,16.8,0000.0,0013.26,0004.71,0002.82
